Date,Time,Wetness (Wet Dry or Ice),Wind Speed (m/s),Temperature (C),Humidity (%),Pressure (mb),Radiation (W/m^2)
2019-09-29,03:50:00,DRY,4.97,14.53,20.3,775.00,1.6
2019-09-29,03:55:00,DRY,7.35,14.60,21.5,775.00,1.1
2019-09-29,04:00:00,DRY,4.97,14.57,20.3,775.00,1.2
2019-09-29,04:05:00,DRY,5.85,14.70,20.5,775.00,1.1
2019-09-29,04:10:00,DRY,5.03,14.67,20.3,775.00,1.6
2019-09-29,04:15:00,DRY,7.55,14.60,21.0,775.00,1.1
2019-09-29,04:20:00,DRY,5.50,14.63,19.3,775.00,1.2
2019-09-29,04:25:00,DRY,5.65,14.55,20.0,775.00,0.9
2019-09-29,04:30:00,DRY,5.73,14.60,19.3,775.00,1.0
2019-09-29,04:35:00,DRY,6.75,14.70,20.0,775.00,0.9
2019-09-29,04:40:00,DRY,9.30,14.57,19.3,775.00,0.9
2019-09-29,04:45:00,DRY,4.35,14.55,19.5,775.00,0.7
2019-09-29,04:50:00,DRY,7.03,14.73,21.3,775.00,1.3
2019-09-29,04:55:00,DRY,6.55,14.60,19.0,775.00,1.3
2019-09-29,05:00:00,DRY,6.63,14.70,21.3,775.00,0.9
2019-09-29,05:05:00,DRY,4.45,14.60,19.5,775.00,1.4
2019-09-29,05:10:00,DRY,6.57,14.50,19.7,775.00,1.2
2019-09-29,05:15:00,DRY,3.10,14.55,20.0,775.00,0.8
2019-09-29,05:20:00,DRY,8.03,14.57,20.3,775.00,1.1
2019-09-29,05:25:00,DRY,7.20,14.70,20.5,775.00,1.4
2019-09-29,05:30:00,DRY,5.13,14.80,20.7,775.00,1.7
2019-09-29,05:35:00,DRY,6.85,14.60,21.0,775.00,1.3
2019-09-29,05:40:00,DRY,7.53,14.87,20.3,775.00,1.5
2019-09-29,05:45:00,DRY,5.00,14.65,20.5,775.00,1.0
2019-09-29,05:50:00,DRY,7.13,14.80,20.7,775.00,1.0
2019-09-29,05:55:00,DRY,6.85,14.65,20.5,775.00,1.8
2019-09-29,06:00:00,DRY,7.07,14.83,21.0,775.00,1.3
2019-09-29,06:05:00,DRY,6.60,14.70,20.0,775.00,1.8
2019-09-29,06:10:00,DRY,5.83,14.87,20.3,775.00,1.0
2019-09-29,06:15:00,DRY,6.30,14.95,20.5,775.50,0.9
2019-09-29,06:20:00,DRY,7.27,14.87,20.3,775.33,1.2
2019-09-29,06:25:00,DRY,6.45,15.00,21.0,775.00,0.8
2019-09-29,06:30:00,DRY,8.33,14.97,20.7,775.00,1.4
2019-09-29,06:35:00,DRY,8.95,14.80,21.5,775.00,0.8
2019-09-29,06:40:00,DRY,6.87,15.07,21.3,775.33,1.1
2019-09-29,06:45:00,DRY,5.35,14.85,21.5,775.00,1.1
2019-09-29,06:50:00,DRY,7.60,15.10,22.0,775.33,1.8
2019-09-29,06:55:00,DRY,4.25,15.20,22.0,775.50,3.0
2019-09-29,07:00:00,DRY,4.73,14.77,22.0,776.00,4.7
2019-09-29,07:05:00,DRY,8.00,15.25,22.5,775.50,7.6
2019-09-29,07:10:00,DRY,5.87,14.90,22.3,775.33,14.6
2019-09-29,07:15:00,DRY,4.95,14.90,22.0,775.50,24.5
2019-09-29,07:20:00,DRY,6.03,14.80,22.0,776.00,36.0
2019-09-29,07:25:00,DRY,4.10,14.90,22.5,775.50,46.4
2019-09-29,07:30:00,DRY,4.43,14.90,22.3,776.00,58.3
2019-09-29,07:35:00,DRY,6.15,14.95,22.0,775.50,65.1
2019-09-29,07:40:00,DRY,6.27,14.97,22.3,776.00,67.0
2019-09-29,07:45:00,DRY,7.40,14.95,22.0,776.00,70.9
2019-09-29,07:50:00,DRY,6.13,15.00,23.0,776.00,77.9
2019-09-29,07:55:00,DRY,2.65,15.10,22.0,776.00,88.9
2019-09-29,08:00:00,DRY,8.47,15.07,23.0,776.00,101.8
2019-09-29,08:05:00,DRY,3.45,15.20,22.5,776.00,109.8
2019-09-29,08:10:00,DRY,3.23,15.13,22.7,776.00,124.6
2019-09-29,08:15:00,DRY,3.65,15.15,23.0,776.00,140.4
2019-09-29,08:20:00,DRY,1.83,15.17,22.3,776.00,160.3
2019-09-29,08:25:00,DRY,5.25,15.40,23.0,776.00,195.7
2019-09-29,08:30:00,DRY,3.33,15.43,23.0,776.00,155.3
2019-09-29,08:35:00,DRY,6.65,15.40,22.0,776.00,155.9
2019-09-29,08:40:00,DRY,3.47,15.37,22.7,776.00,219.5
2019-09-29,08:45:00,DRY,4.70,15.40,22.5,776.00,369.4
2019-09-29,08:50:00,DRY,5.37,15.63,22.7,776.00,270.7
2019-09-29,08:55:00,DRY,4.75,15.65,22.0,776.00,302.4
2019-09-29,09:00:00,DRY,5.53,15.67,22.0,776.00,322.8
2019-09-29,09:05:00,DRY,2.85,15.70,22.0,776.00,440.8
2019-09-29,09:10:00,DRY,5.03,15.80,22.0,776.00,424.3
2019-09-29,09:15:00,DRY,3.35,15.80,22.0,776.00,440.2
2019-09-29,09:20:00,DRY,3.43,15.83,22.0,776.33,466.9
2019-09-29,09:25:00,DRY,2.35,16.00,21.5,776.50,545.8
2019-09-29,09:30:00,DRY,1.97,16.20,21.3,776.00,602.0
2019-09-29,09:35:00,DRY,3.60,16.40,21.0,776.00,615.7
2019-09-29,09:40:00,DRY,1.40,16.45,21.0,776.50,627.4
2019-09-29,09:45:00,DRY,2.00,16.50,22.0,776.50,575.4
2019-09-29,09:50:00,DRY,1.67,16.57,21.0,776.33,663.8
2019-09-29,09:55:00,DRY,3.40,16.70,21.0,776.50,686.2
2019-09-29,10:00:00,DRY,3.80,16.77,21.0,776.67,709.9
2019-09-29,10:05:00,DRY,3.05,16.90,21.0,777.00,744.5
2019-09-29,10:10:00,DRY,4.60,17.03,20.7,776.67,768.3
2019-09-29,10:15:00,DRY,2.85,17.20,20.5,777.00,696.4
2019-09-29,10:20:00,DRY,2.07,16.93,21.0,777.00,665.3
2019-09-29,10:25:00,DRY,7.10,17.15,21.0,777.00,605.3
2019-09-29,10:30:00,DRY,3.00,16.93,20.7,777.00,597.2
2019-09-29,10:35:00,DRY,3.40,16.80,21.0,777.00,634.5
2019-09-29,10:40:00,DRY,4.40,16.77,21.0,777.00,632.7
2019-09-29,10:45:00,DRY,2.70,16.85,21.0,777.00,676.0
2019-09-29,10:50:00,DRY,2.47,16.97,21.0,777.00,744.7
2019-09-29,10:55:00,DRY,2.45,16.95,21.0,777.00,756.7
2019-09-29,11:00:00,DRY,2.07,17.10,21.0,777.00,788.4
2019-09-29,11:05:00,DRY,3.20,17.55,21.0,777.00,798.2
2019-09-29,11:10:00,DRY,3.00,17.63,20.3,777.00,637.9
2019-09-29,11:15:00,DRY,4.30,16.95,21.5,777.00,442.1
2019-09-29,11:20:00,DRY,4.27,16.47,22.0,777.00,526.9
2019-09-29,11:25:00,DRY,2.60,16.60,22.0,777.00,665.0
2019-09-29,11:30:00,DRY,2.43,16.83,21.0,777.00,831.4
2019-09-29,11:35:00,DRY,1.60,16.75,22.0,777.00,893.9
2019-09-29,11:40:00,DRY,3.47,17.37,21.7,777.00,1019.9
2019-09-29,11:45:00,DRY,3.60,17.45,21.5,777.00,1037.2
2019-09-29,11:50:00,DRY,2.37,17.63,21.3,777.00,1054.1
2019-09-29,11:55:00,DRY,2.65,17.50,22.5,777.00,944.2
2019-09-29,12:00:00,DRY,2.70,17.90,22.0,777.00,725.1
2019-09-29,12:05:00,DRY,2.75,17.35,22.0,777.00,613.1
2019-09-29,12:10:00,DRY,1.60,17.87,22.0,777.00,936.2
2019-09-29,12:15:00,DRY,1.85,17.85,22.0,777.00,820.3
2019-09-29,12:20:00,DRY,2.77,17.60,22.3,777.00,884.2
2019-09-29,12:25:00,DRY,2.85,17.85,22.0,777.00,816.5
2019-09-29,12:30:00,DRY,1.20,18.40,21.3,777.00,937.0
2019-09-29,12:35:00,DRY,2.10,18.40,21.5,777.00,895.5
2019-09-29,12:40:00,DRY,2.33,18.50,21.3,777.00,874.4
2019-09-29,12:45:00,DRY,4.30,19.00,21.0,777.00,941.1
2019-09-29,12:50:00,DRY,3.43,18.83,21.0,777.00,1021.9
2019-09-29,12:55:00,DRY,3.35,19.05,21.0,777.00,863.5
2019-09-29,13:00:00,DRY,4.23,18.60,21.0,777.00,879.9
2019-09-29,13:05:00,DRY,5.05,18.85,20.5,777.00,869.5
2019-09-29,13:10:00,DRY,3.60,19.00,21.0,777.00,930.4
2019-09-29,13:15:00,DRY,2.35,18.75,21.0,777.00,825.5
2019-09-29,13:20:00,DRY,2.97,18.87,21.0,777.00,954.1
2019-09-29,13:25:00,DRY,4.85,18.65,21.5,777.00,833.2
2019-09-29,13:30:00,DRY,5.30,18.10,22.0,777.00,1025.1
2019-09-29,13:35:00,DRY,2.10,18.50,22.0,777.00,662.5
2019-09-29,13:40:00,DRY,2.90,17.97,21.7,777.00,784.7
2019-09-29,13:45:00,DRY,4.45,17.75,22.0,777.00,741.3
2019-09-29,13:50:00,DRY,3.00,17.33,22.3,776.67,786.3
2019-09-29,13:55:00,DRY,4.85,17.75,22.5,777.00,564.7
2019-09-29,14:00:00,DRY,4.60,17.53,22.3,777.00,787.4
2019-09-29,14:05:00,DRY,4.60,17.20,24.0,777.00,921.2
2019-09-29,14:10:00,DRY,6.70,17.03,24.0,777.00,938.2
2019-09-29,14:15:00,DRY,4.10,17.40,23.5,777.00,922.3
2019-09-29,14:20:00,DRY,2.90,17.20,24.3,776.00,963.8
2019-09-29,14:25:00,DRY,5.25,16.85,24.5,776.00,959.0
2019-09-29,14:30:00,DRY,4.00,17.03,25.0,776.00,939.3
2019-09-29,14:35:00,DRY,3.60,16.65,25.0,776.00,920.0
2019-09-29,14:40:00,DRY,5.47,16.70,26.0,776.00,908.2
2019-09-29,14:45:00,DRY,6.10,16.70,26.0,776.50,898.9
2019-09-29,14:50:00,DRY,3.67,16.63,25.0,776.00,882.8
2019-09-29,14:55:00,DRY,4.30,16.80,25.5,776.00,873.0
2019-09-29,15:00:00,DRY,2.90,16.60,26.0,776.00,861.8
2019-09-29,15:05:00,DRY,5.65,16.80,24.5,776.00,846.2
2019-09-29,15:10:00,DRY,3.23,16.73,26.7,776.00,830.4
2019-09-29,15:15:00,DRY,5.00,16.55,25.5,776.00,815.5
2019-09-29,15:20:00,DRY,3.90,16.60,24.3,776.00,795.9
2019-09-29,15:25:00,DRY,8.85,16.45,25.0,776.00,777.8
2019-09-29,15:30:00,DRY,5.63,16.50,26.0,776.00,763.3
2019-09-29,15:35:00,DRY,5.60,16.60,26.0,776.00,741.2
2019-09-29,15:40:00,DRY,4.03,16.37,25.3,776.00,720.8
2019-09-29,15:45:00,DRY,6.90,16.25,25.5,776.00,659.8
2019-09-29,15:50:00,DRY,6.73,16.23,25.7,776.00,685.2
2019-09-29,15:55:00,DRY,10.00,16.10,25.5,776.00,688.0
2019-09-29,16:00:00,DRY,7.50,16.10,25.7,776.00,666.8
2019-09-29,16:05:00,DRY,6.40,16.10,25.5,776.00,647.7
2019-09-29,16:10:00,DRY,5.63,16.10,25.7,776.00,630.8
2019-09-29,16:15:00,DRY,5.40,16.15,25.5,776.00,615.8
2019-09-29,16:20:00,DRY,8.63,16.13,25.0,775.67,598.3
2019-09-29,16:25:00,DRY,9.05,16.10,25.5,776.00,581.2
2019-09-29,16:30:00,DRY,6.20,16.07,25.0,776.00,561.6
2019-09-29,16:35:00,DRY,4.35,16.10,24.5,776.00,541.8
2019-09-29,16:40:00,DRY,5.30,16.13,25.3,776.00,519.8
2019-09-29,16:45:00,DRY,6.15,16.05,25.0,776.00,499.6
2019-09-29,16:50:00,DRY,7.43,16.03,24.0,776.00,476.5
2019-09-29,16:55:00,DRY,5.95,15.85,24.0,776.00,437.9
2019-09-29,17:00:00,DRY,6.43,15.93,24.0,776.00,442.8
2019-09-29,17:05:00,DRY,7.25,15.95,24.0,776.00,428.3
2019-09-29,17:10:00,DRY,6.10,15.93,24.0,776.00,402.6
2019-09-29,17:15:00,DRY,7.20,15.80,23.5,776.00,375.2
2019-09-29,17:20:00,DRY,7.13,15.83,25.7,776.00,311.4
2019-09-29,17:25:00,DRY,7.60,15.70,26.0,776.00,293.1
2019-09-29,17:30:00,DRY,7.27,15.77,26.0,776.00,303.1
2019-09-29,17:35:00,DRY,5.55,15.70,26.0,776.00,298.1
2019-09-29,17:40:00,DRY,6.80,15.60,26.0,776.00,300.4
2019-09-29,17:45:00,DRY,6.70,15.70,25.5,776.00,277.3
2019-09-29,17:50:00,DRY,7.90,15.60,25.7,776.00,248.9
2019-09-29,17:55:00,DRY,3.55,15.55,25.5,776.00,228.3
2019-09-29,18:00:00,DRY,5.60,15.50,26.0,776.00,212.3
2019-09-29,18:05:00,DRY,5.80,15.50,26.0,776.00,192.9
2019-09-29,18:10:00,DRY,6.80,15.43,25.7,776.00,164.7
2019-09-29,18:15:00,DRY,5.05,15.35,26.0,776.00,144.6
2019-09-29,18:20:00,DRY,4.70,15.30,26.0,776.00,85.6
2019-09-29,18:25:00,DRY,5.80,15.25,26.5,776.00,70.6
2019-09-29,18:30:00,DRY,6.43,15.30,26.7,776.00,62.0
2019-09-29,18:35:00,DRY,6.05,15.25,27.5,776.00,49.9
2019-09-29,18:40:00,DRY,3.80,15.23,28.3,776.00,39.8
2019-09-29,18:45:00,DRY,6.55,15.15,28.5,776.00,30.7
2019-09-29,18:50:00,DRY,5.80,15.10,28.3,776.00,22.5
2019-09-29,18:55:00,DRY,7.90,15.10,29.0,776.00,15.2
2019-09-29,19:00:00,DRY,4.87,15.17,29.0,776.00,9.8
2019-09-29,19:05:00,DRY,7.35,15.15,29.0,776.00,5.8
2019-09-29,19:10:00,DRY,8.43,15.23,29.0,776.00,3.4
2019-09-29,19:15:00,DRY,8.25,15.10,29.5,776.00,2.1
2019-09-29,19:20:00,DRY,5.83,15.17,29.7,776.00,1.5
2019-09-29,19:25:00,DRY,6.95,15.10,29.5,776.00,1.4
2019-09-29,19:30:00,DRY,6.73,15.20,29.0,776.33,1.2
2019-09-29,19:35:00,DRY,7.25,15.10,29.5,776.00,1.1
2019-09-29,19:40:00,DRY,5.23,15.10,29.7,776.00,1.3
2019-09-29,19:45:00,DRY,5.20,15.15,30.0,776.00,1.1
2019-09-29,19:50:00,DRY,6.10,15.30,29.0,776.67,1.5
2019-09-29,19:55:00,DRY,6.20,15.15,29.0,777.00,1.6
2019-09-29,20:00:00,DRY,6.73,15.17,29.3,776.33,1.5
2019-09-29,20:05:00,DRY,8.65,15.05,29.0,776.50,1.5
2019-09-29,20:10:00,DRY,6.80,15.13,29.3,776.67,1.2
2019-09-29,20:15:00,DRY,5.15,15.20,29.0,777.00,1.8
2019-09-29,20:20:00,DRY,8.27,15.37,28.7,777.00,1.2
2019-09-29,20:25:00,DRY,7.45,15.10,29.0,776.50,1.8
2019-09-29,20:30:00,DRY,5.93,15.30,28.7,777.00,1.0
2019-09-29,20:35:00,DRY,7.65,15.00,29.0,777.00,1.3
2019-09-29,20:40:00,DRY,7.07,14.97,29.0,776.67,1.2
2019-09-29,20:45:00,DRY,4.30,15.20,29.0,777.00,1.1
2019-09-29,20:50:00,DRY,6.17,15.17,29.0,777.00,1.4
2019-09-29,20:55:00,DRY,6.20,15.25,28.5,777.00,1.4
2019-09-29,21:00:00,DRY,5.33,15.47,28.0,777.00,2.5
2019-09-29,21:05:00,DRY,7.75,15.35,28.5,777.00,1.4
2019-09-29,21:10:00,DRY,4.60,15.30,28.3,777.00,1.7
2019-09-29,21:15:00,DRY,5.85,15.25,29.0,777.00,2.6
2019-09-29,21:20:00,DRY,5.90,15.33,28.7,777.00,0.8
2019-09-29,21:25:00,DRY,6.05,15.40,28.0,777.00,1.1
2019-09-29,21:30:00,DRY,6.50,15.53,27.7,777.00,1.3
2019-09-29,21:35:00,DRY,4.25,15.15,28.5,777.00,1.2
2019-09-29,21:40:00,DRY,4.80,15.37,28.0,777.00,1.0
2019-09-29,21:45:00,DRY,3.85,15.40,28.0,777.00,1.1
2019-09-29,21:50:00,DRY,5.17,15.47,28.0,777.00,1.3
2019-09-29,21:55:00,DRY,2.40,15.45,28.0,777.00,0.9
2019-09-29,22:00:00,DRY,5.83,15.37,28.0,777.00,1.3
2019-09-29,22:05:00,DRY,6.15,15.40,28.0,777.00,1.5
2019-09-29,22:10:00,DRY,5.07,15.47,28.0,777.00,1.3
2019-09-29,22:15:00,DRY,3.65,15.55,28.0,777.00,1.1
2019-09-29,22:20:00,DRY,5.67,15.60,28.0,777.00,1.5
2019-09-29,22:25:00,DRY,6.20,15.65,27.5,777.00,1.1
2019-09-29,22:30:00,DRY,5.70,15.63,27.7,777.00,1.3
2019-09-29,22:35:00,DRY,6.70,15.65,27.5,777.00,1.5
2019-09-29,22:40:00,DRY,7.27,15.67,27.3,777.00,1.2
2019-09-29,22:45:00,DRY,3.50,15.85,26.0,777.50,1.2
2019-09-29,22:50:00,DRY,6.40,16.00,26.3,777.00,1.2
2019-09-29,22:55:00,DRY,3.95,15.95,26.0,777.00,1.4
2019-09-29,23:00:00,DRY,4.57,16.17,25.7,777.00,1.2
2019-09-29,23:05:00,DRY,5.95,16.15,26.0,777.00,1.4
2019-09-29,23:10:00,DRY,5.60,16.07,25.7,777.00,1.0
2019-09-29,23:15:00,DRY,4.55,16.05,26.0,777.00,1.1
2019-09-29,23:20:00,DRY,5.40,16.10,25.7,777.00,1.1
2019-09-29,23:25:00,DRY,3.55,16.20,25.5,777.00,0.7
2019-09-29,23:30:00,DRY,5.37,16.30,25.0,777.00,1.3
2019-09-29,23:35:00,DRY,4.10,16.30,25.0,777.50,1.0
2019-09-29,23:40:00,DRY,5.03,16.27,25.0,777.00,1.2
2019-09-29,23:45:00,DRY,6.85,16.15,25.0,777.00,1.4
2019-09-29,23:50:00,DRY,3.77,16.33,24.7,777.00,1.4
2019-09-29,23:55:00,DRY,4.35,16.50,24.0,777.50,1.5
2019-09-30,00:00:00,DRY,4.93,16.57,24.0,777.00,1.3
2019-09-30,00:05:00,DRY,5.60,16.65,24.0,777.00,2.0
2019-09-30,00:10:00,DRY,4.83,16.77,23.3,777.00,1.5
2019-09-30,00:15:00,DRY,5.55,16.65,24.0,777.00,1.5
2019-09-30,00:20:00,DRY,4.90,16.57,24.0,777.00,1.6
2019-09-30,00:25:00,DRY,5.05,16.45,24.0,777.00,1.2
2019-09-30,00:30:00,DRY,4.53,16.37,24.0,777.00,1.2
2019-09-30,00:35:00,DRY,5.60,16.45,24.0,777.00,2.5
2019-09-30,00:40:00,DRY,5.10,16.53,24.0,777.00,1.3
2019-09-30,00:45:00,DRY,4.90,16.60,24.0,777.00,1.4
2019-09-30,00:50:00,DRY,5.27,16.67,24.0,777.00,1.5
2019-09-30,00:55:00,DRY,5.60,16.65,23.5,777.00,1.1
2019-09-30,01:00:00,DRY,4.40,16.63,23.7,777.00,0.7
2019-09-30,01:05:00,DRY,6.55,16.55,24.0,777.00,0.7
2019-09-30,01:10:00,DRY,3.97,16.43,24.0,777.00,1.1
2019-09-30,01:15:00,DRY,4.35,16.40,24.0,777.00,1.2
2019-09-30,01:20:00,DRY,3.97,16.40,24.0,777.00,1.0
2019-09-30,01:25:00,DRY,6.20,16.20,24.5,777.00,1.5
2019-09-30,01:30:00,DRY,4.13,16.13,24.7,777.00,1.3
2019-09-30,01:35:00,DRY,8.05,16.25,24.0,777.00,1.2
2019-09-30,01:40:00,DRY,5.57,16.37,24.0,777.00,1.1
2019-09-30,01:45:00,DRY,3.40,16.40,24.0,777.00,1.4
2019-09-30,01:50:00,DRY,3.83,16.17,23.7,777.00,1.2
2019-09-30,01:55:00,DRY,5.50,16.35,23.5,777.00,1.3
2019-09-30,02:00:00,DRY,4.50,16.47,23.7,777.00,1.3
2019-09-30,02:05:00,DRY,4.75,16.55,24.0,777.00,2.3
2019-09-30,02:10:00,DRY,5.23,16.57,23.3,777.00,2.2
2019-09-30,02:15:00,DRY,5.50,16.70,23.0,777.00,1.6
2019-09-30,02:20:00,DRY,6.03,16.53,23.3,776.67,1.4
2019-09-30,02:25:00,DRY,5.90,16.60,23.0,777.00,1.4
2019-09-30,02:30:00,DRY,5.00,16.60,23.0,776.67,1.6
2019-09-30,02:35:00,DRY,4.30,16.45,23.0,776.50,1.2
2019-09-30,02:40:00,DRY,5.80,16.70,23.0,776.33,1.1
2019-09-30,02:45:00,DRY,4.40,16.65,23.0,777.00,1.3
2019-09-30,02:50:00,DRY,4.93,16.57,23.0,776.33,1.1
2019-09-30,02:55:00,DRY,4.80,16.40,23.5,776.50,1.1
2019-09-30,03:00:00,DRY,5.60,16.40,23.0,776.00,1.4
2019-09-30,03:05:00,DRY,5.80,16.35,23.0,776.00,1.6
2019-09-30,03:10:00,DRY,5.07,16.47,23.0,776.00,1.3
2019-09-30,03:15:00,DRY,3.40,16.50,23.0,776.50,0.8
2019-09-30,03:20:00,DRY,5.40,16.63,23.0,776.00,1.2
2019-09-30,03:25:00,DRY,4.40,16.55,23.0,776.00,1.1
2019-09-30,03:30:00,DRY,3.03,16.77,22.3,776.00,1.1
2019-09-30,03:35:00,DRY,6.65,16.85,22.0,776.00,1.7
2019-09-30,03:40:00,DRY,4.90,16.93,22.0,776.00,1.3
2019-09-30,03:45:00,DRY,7.00,16.95,22.5,776.00,1.5
2019-09-30,03:50:00,DRY,5.77,16.93,22.3,776.00,1.4
2019-09-30,03:55:00,DRY,3.75,17.00,22.0,776.00,0.8
2019-09-30,04:00:00,DRY,5.77,16.87,22.7,776.00,1.4
2019-09-30,04:05:00,DRY,4.20,16.85,22.0,776.00,1.1
2019-09-30,04:10:00,DRY,5.13,16.90,22.7,776.00,1.2
2019-09-30,04:15:00,DRY,5.35,16.95,23.0,776.00,1.3
2019-09-30,04:20:00,DRY,4.70,16.67,23.0,776.00,2.0
2019-09-30,04:25:00,DRY,6.30,16.85,23.0,776.00,1.2
2019-09-30,04:30:00,DRY,4.00,16.80,23.0,776.00,1.4
2019-09-30,04:35:00,DRY,5.10,16.80,23.0,776.00,1.1
2019-09-30,04:40:00,DRY,5.10,16.93,23.0,776.00,1.4
2019-09-30,04:45:00,DRY,4.70,17.00,23.0,776.00,1.4
2019-09-30,04:50:00,DRY,4.50,16.80,23.0,776.00,1.0
2019-09-30,04:55:00,DRY,6.05,16.75,23.0,776.00,1.4
2019-09-30,05:00:00,DRY,5.20,16.83,23.0,776.00,1.4
2019-09-30,05:05:00,DRY,5.40,16.95,23.0,776.00,1.0
2019-09-30,05:10:00,DRY,5.73,16.93,23.0,776.00,0.8
2019-09-30,05:15:00,DRY,4.65,16.90,23.0,776.00,1.3
2019-09-30,05:20:00,DRY,5.90,16.80,23.0,776.00,1.1
2019-09-30,05:25:00,DRY,6.55,16.85,23.0,776.00,1.4
2019-09-30,05:30:00,DRY,5.20,16.97,23.0,776.00,1.6
2019-09-30,05:35:00,DRY,4.35,16.95,23.0,776.00,0.9
2019-09-30,05:40:00,DRY,7.07,17.10,22.7,776.33,1.1
2019-09-30,05:45:00,DRY,5.40,17.00,22.5,776.00,0.9
2019-09-30,05:50:00,DRY,5.23,17.13,22.7,776.67,1.6
2019-09-30,05:55:00,DRY,4.50,17.15,22.5,777.00,2.0
2019-09-30,06:00:00,DRY,4.50,17.07,22.3,777.00,1.9
2019-09-30,06:05:00,DRY,4.05,16.95,23.0,777.00,1.2
2019-09-30,06:10:00,DRY,4.30,17.10,23.0,777.00,1.5
2019-09-30,06:15:00,DRY,5.70,17.00,23.0,777.00,0.8
2019-09-30,06:20:00,DRY,5.37,17.07,23.0,777.00,1.2
2019-09-30,06:25:00,DRY,5.50,16.95,23.0,777.00,1.1
2019-09-30,06:30:00,DRY,5.07,17.00,22.7,777.00,1.3
2019-09-30,06:35:00,DRY,5.55,17.00,23.0,777.00,1.2
2019-09-30,06:40:00,DRY,5.67,16.87,23.0,777.00,1.2
2019-09-30,06:45:00,DRY,4.90,16.75,23.0,777.00,1.2
2019-09-30,06:50:00,DRY,5.43,17.00,23.0,777.00,1.4
2019-09-30,06:55:00,DRY,5.70,17.00,23.0,777.00,1.9
2019-09-30,07:00:00,DRY,5.80,17.03,23.0,777.00,3.7
2019-09-30,07:05:00,DRY,6.35,17.05,23.0,777.00,6.0
2019-09-30,07:10:00,DRY,5.57,17.17,22.3,777.00,9.1
2019-09-30,07:15:00,DRY,6.40,17.15,23.0,777.00,11.9
2019-09-30,07:20:00,DRY,5.63,17.13,23.0,777.00,15.0
2019-09-30,07:25:00,DRY,7.15,17.10,23.0,777.00,18.5
2019-09-30,07:30:00,DRY,4.10,17.17,22.3,777.00,22.7
2019-09-30,07:35:00,DRY,3.85,16.95,23.0,777.00,27.4
2019-09-30,07:40:00,DRY,7.40,17.10,23.0,777.00,35.8
2019-09-30,07:45:00,DRY,6.45,17.10,23.0,777.00,44.8
2019-09-30,07:50:00,DRY,5.57,17.10,23.0,777.00,86.6
2019-09-30,07:55:00,DRY,7.10,17.30,22.5,777.00,142.6
2019-09-30,08:00:00,DRY,4.10,17.33,22.3,777.00,166.7
2019-09-30,08:05:00,DRY,5.40,17.50,22.0,777.00,194.0
2019-09-30,08:10:00,DRY,7.47,17.47,22.0,777.00,200.8
2019-09-30,08:15:00,DRY,6.20,17.55,22.0,777.00,229.4
2019-09-30,08:20:00,DRY,5.53,17.50,22.0,777.00,232.8
2019-09-30,08:25:00,DRY,6.10,17.65,22.0,777.00,278.9
2019-09-30,08:30:00,DRY,5.23,17.73,21.7,777.00,293.9
2019-09-30,08:35:00,DRY,4.30,17.85,21.5,777.00,332.6
2019-09-30,08:40:00,DRY,4.80,17.97,21.0,777.00,354.8
2019-09-30,08:45:00,DRY,5.15,18.05,21.0,777.50,386.0
2019-09-30,08:50:00,DRY,4.13,18.13,21.0,777.00,413.8
2019-09-30,08:55:00,DRY,3.65,18.20,21.0,778.00,438.5
2019-09-30,09:00:00,DRY,4.10,18.23,21.0,778.00,446.4
2019-09-30,09:05:00,DRY,4.35,18.35,21.0,778.00,491.4
2019-09-30,09:10:00,DRY,3.27,18.60,21.0,778.00,510.7
2019-09-30,09:15:00,DRY,2.45,18.60,21.0,778.00,532.5
2019-09-30,09:20:00,DRY,2.90,18.70,21.0,778.00,558.3
2019-09-30,09:25:00,DRY,2.35,18.55,21.0,778.00,577.7
2019-09-30,09:30:00,DRY,4.57,18.77,20.7,778.00,596.1
2019-09-30,09:35:00,DRY,3.80,18.85,20.5,778.00,618.2
2019-09-30,09:40:00,DRY,2.53,19.17,20.0,778.00,638.2
2019-09-30,09:45:00,DRY,2.70,19.05,20.0,778.00,662.7
2019-09-30,09:50:00,DRY,5.20,19.00,20.0,778.00,675.3
2019-09-30,09:55:00,,,,,,
2019-09-30,10:00:00,,,,,,
2019-09-30,10:05:00,,,,,,
2019-09-30,10:10:00,DRY,2.70,19.90,20.0,778.00,731.8
2019-09-30,10:15:00,DRY,1.30,19.95,19.5,778.00,730.7
2019-09-30,10:20:00,DRY,1.87,20.27,19.7,778.00,650.0
2019-09-30,10:25:00,DRY,2.80,20.10,20.0,778.00,627.0
2019-09-30,10:30:00,DRY,1.20,20.10,19.0,778.00,823.7
2019-09-30,10:35:00,DRY,4.15,20.05,19.5,778.00,818.5
2019-09-30,10:40:00,DRY,1.20,20.23,19.3,778.00,835.2
2019-09-30,10:45:00,DRY,1.15,20.20,18.5,778.00,841.7
2019-09-30,10:50:00,DRY,2.53,20.53,19.0,778.00,854.0
2019-09-30,10:55:00,DRY,2.20,20.90,18.5,778.00,859.5
2019-09-30,11:00:00,DRY,1.30,21.03,18.7,778.00,862.3
2019-09-30,11:05:00,DRY,2.70,20.95,19.0,778.00,874.4
2019-09-30,11:10:00,DRY,2.40,21.10,18.0,778.00,885.0
2019-09-30,11:15:00,DRY,1.20,21.15,18.5,778.00,892.4
2019-09-30,11:20:00,DRY,2.40,21.40,18.3,778.00,894.1
2019-09-30,11:25:00,DRY,3.60,21.35,20.0,778.00,898.1
2019-09-30,11:30:00,DRY,1.97,21.57,19.3,778.00,905.2
2019-09-30,11:35:00,DRY,2.10,21.15,18.0,778.00,913.5
2019-09-30,11:40:00,DRY,1.93,20.77,18.7,778.00,918.3
2019-09-30,11:45:00,DRY,3.10,21.05,18.5,778.00,923.2
2019-09-30,11:50:00,DRY,1.93,21.00,18.0,778.00,931.2
2019-09-30,11:55:00,DRY,2.45,20.70,18.5,778.00,937.9
2019-09-30,12:00:00,DRY,3.70,20.77,18.7,778.00,943.6
2019-09-30,12:05:00,DRY,1.60,20.85,19.5,778.00,950.1
2019-09-30,12:10:00,DRY,1.97,20.90,18.7,778.00,873.0
2019-09-30,12:15:00,DRY,2.40,20.65,19.5,778.00,931.8
2019-09-30,12:20:00,DRY,1.67,20.73,19.3,778.00,923.3
2019-09-30,12:25:00,DRY,2.60,20.95,20.0,778.00,813.8
2019-09-30,12:30:00,DRY,2.10,21.30,18.7,778.00,669.6
2019-09-30,12:35:00,DRY,2.70,20.70,20.0,778.00,627.4
2019-09-30,12:40:00,DRY,2.30,20.53,20.7,778.00,672.5
2019-09-30,12:45:00,DRY,0.75,20.55,21.5,778.00,750.3
2019-09-30,12:50:00,DRY,1.87,20.50,20.3,778.00,759.5
2019-09-30,12:55:00,DRY,2.55,20.35,21.0,778.00,776.4
2019-09-30,13:00:00,DRY,2.10,20.57,20.3,778.00,881.1
2019-09-30,13:05:00,DRY,1.25,20.65,21.0,778.00,922.9
2019-09-30,13:10:00,DRY,1.40,21.03,20.7,778.00,995.1
2019-09-30,13:15:00,DRY,2.15,21.75,20.5,778.00,977.8
2019-09-30,13:20:00,DRY,1.90,21.37,20.0,778.00,976.9
2019-09-30,13:25:00,DRY,1.85,21.70,20.0,778.00,975.3
2019-09-30,13:30:00,DRY,1.80,21.50,21.0,778.00,974.0
2019-09-30,13:35:00,DRY,1.80,21.80,22.0,777.00,968.1
2019-09-30,13:40:00,DRY,1.70,21.97,22.0,778.00,963.3
2019-09-30,13:45:00,DRY,2.40,21.65,22.0,778.00,959.4
2019-09-30,13:50:00,DRY,1.47,22.20,21.3,778.00,953.7
2019-09-30,13:55:00,DRY,1.30,21.50,22.5,778.00,949.9
2019-09-30,14:00:00,DRY,1.70,21.47,21.3,778.00,947.1
2019-09-30,14:05:00,DRY,2.70,22.55,21.5,778.00,943.1
2019-09-30,14:10:00,DRY,2.00,21.90,22.3,778.00,960.6
2019-09-30,14:15:00,DRY,1.60,22.25,22.0,778.00,795.8
2019-09-30,14:20:00,DRY,1.80,22.03,21.3,778.00,737.8
2019-09-30,14:25:00,DRY,0.80,22.60,21.5,778.00,789.4
2019-09-30,14:30:00,DRY,1.43,21.77,21.7,778.00,923.2
2019-09-30,14:35:00,DRY,2.60,22.55,21.5,777.50,944.3
2019-09-30,14:40:00,DRY,1.20,21.93,21.7,778.00,943.7
2019-09-30,14:45:00,DRY,1.00,21.95,22.0,778.00,914.8
2019-09-30,14:50:00,DRY,1.47,22.37,21.3,778.00,881.8
2019-09-30,14:55:00,DRY,1.35,21.05,22.0,778.00,855.6
2019-09-30,15:00:00,DRY,1.20,21.17,22.3,778.00,871.5
2019-09-30,15:05:00,DRY,1.55,21.55,22.0,778.00,878.2
2019-09-30,15:10:00,DRY,2.27,21.53,22.7,778.00,834.0
2019-09-30,15:15:00,DRY,2.90,22.10,22.0,778.00,807.0
2019-09-30,15:20:00,DRY,1.47,21.67,22.3,778.00,787.1
2019-09-30,15:25:00,DRY,1.30,22.25,21.0,778.00,771.6
2019-09-30,15:30:00,DRY,1.13,21.67,22.3,778.00,756.5
2019-09-30,15:35:00,DRY,3.15,21.65,22.0,777.50,742.6
2019-09-30,15:40:00,DRY,2.40,21.03,23.0,777.33,727.1
2019-09-30,15:45:00,DRY,0.65,21.60,21.5,778.00,711.7
2019-09-30,15:50:00,DRY,1.57,21.50,21.7,777.67,696.3
2019-09-30,15:55:00,DRY,1.55,21.55,22.0,778.00,678.9
2019-09-30,16:00:00,DRY,2.13,20.73,23.0,777.67,663.4
2019-09-30,16:05:00,DRY,1.55,20.50,24.0,777.00,647.2
2019-09-30,16:10:00,DRY,1.27,20.80,23.0,777.33,627.2
2019-09-30,16:15:00,DRY,1.40,20.80,23.0,778.00,610.6
2019-09-30,16:20:00,DRY,2.37,21.43,22.0,778.00,591.7
2019-09-30,16:25:00,DRY,0.45,21.85,21.5,777.50,572.2
2019-09-30,16:30:00,DRY,1.60,21.77,23.0,777.67,555.5
2019-09-30,16:35:00,DRY,1.35,21.05,23.5,777.00,536.3
2019-09-30,16:40:00,DRY,1.63,20.97,23.7,778.00,515.3
2019-09-30,16:45:00,DRY,0.80,21.15,23.0,777.50,496.6
2019-09-30,16:50:00,DRY,0.60,20.93,24.7,777.00,478.1
2019-09-30,16:55:00,DRY,1.20,21.15,23.0,777.00,457.0
2019-09-30,17:00:00,DRY,1.70,20.57,23.7,777.67,437.4
2019-09-30,17:05:00,DRY,1.10,20.85,23.0,778.00,416.1
2019-09-30,17:10:00,DRY,2.60,20.93,23.3,777.67,394.6
2019-09-30,17:15:00,DRY,1.20,21.05,23.0,778.00,374.5
2019-09-30,17:20:00,DRY,1.67,20.90,22.3,778.00,353.4
2019-09-30,17:25:00,DRY,2.30,21.10,23.0,778.00,335.6
2019-09-30,17:30:00,DRY,1.30,20.43,23.7,778.00,307.7
2019-09-30,17:35:00,DRY,1.65,20.55,22.5,778.00,288.2
2019-09-30,17:40:00,DRY,1.63,20.73,21.7,778.00,267.1
2019-09-30,17:45:00,DRY,1.50,20.85,21.0,778.00,244.6
2019-09-30,17:50:00,DRY,1.60,20.93,20.3,778.00,224.4
2019-09-30,17:55:00,DRY,1.35,20.40,21.0,778.00,204.6
2019-09-30,18:00:00,DRY,1.93,20.70,20.3,778.00,183.0